Time,TemperatureF,DewpointF,PressureIn,WindDirection,WindDirectionDegrees,WindSpeedMPH,WindSpeedGustMPH,Humidity,HourlyPrecipIn,Conditions,Clouds,dailyrainin,SolarRadiationWatts/m^2,SoftwareType,DateUTC
2013-05-01 00:00:00,56.0,56.0,30.05,SSW,202,0.0,-999.0,98,-99.99,,,-99.99,0.000000,,2013-05-01 05:00:00,
2013-05-01 00:52:00,56.0,56.0,30.05,SSW,202,0.0,-999.0,98,-99.99,,,-99.99,0.000000,,2013-05-01 05:52:00,
2013-05-01 03:00:00,64.0,57.0,30.05,ESE,117,0.0,-999.0,79,-99.99,,,-99.99,0.000000,,2013-05-01 08:00:00,
2013-05-01 03:53:00,64.0,57.0,30.05,ESE,117,0.0,-999.0,79,-99.99,,,-99.99,0.000000,,2013-05-01 08:53:00,
2013-05-01 04:00:00,63.0,57.0,30.05,SE,131,1.0,-999.0,82,-99.99,,,-99.99,0.000000,,2013-05-01 09:00:00,
2013-05-01 04:53:00,63.0,57.0,30.05,SE,131,1.0,-999.0,82,-99.99,,,-99.99,0.000000,,2013-05-01 09:53:00,
2013-05-01 05:00:00,63.0,57.0,30.05,SE,132,2.0,-999.0,79,-99.99,,,-99.99,0.000000,,2013-05-01 10:00:00,
2013-05-01 05:53:00,63.0,57.0,30.05,SE,132,2.0,-999.0,79,-99.99,,,-99.99,0.000000,,2013-05-01 10:53:00,
2013-05-01 06:00:00,63.0,58.0,30.06,ESE,108,2.0,-999.0,83,-99.99,,,-99.99,0.560000,,2013-05-01 11:00:00,
2013-05-01 06:52:00,63.0,58.0,30.06,ESE,108,2.0,-999.0,83,-99.99,,,-99.99,0.560000,,2013-05-01 11:52:00,
2013-05-01 07:00:00,64.0,60.0,30.09,SE,124,3.0,-999.0,85,-99.99,,,-99.99,34.240002,,2013-05-01 12:00:00,
2013-05-01 07:52:00,64.0,60.0,30.09,SE,124,3.0,-999.0,85,-99.99,,,-99.99,34.240002,,2013-05-01 12:52:00,
2013-05-01 08:00:00,66.0,60.0,30.10,ESE,121,3.0,-999.0,80,-99.99,,,-99.99,149.300003,,2013-05-01 13:00:00,
2013-05-01 08:52:00,66.0,60.0,30.10,ESE,121,3.0,-999.0,80,-99.99,,,-99.99,149.300003,,2013-05-01 13:52:00,
2013-05-01 09:00:00,69.0,60.0,30.10,ESE,117,4.0,-999.0,74,-99.99,,,-99.99,313.299988,,2013-05-01 14:00:00,
2013-05-01 09:52:00,69.0,60.0,30.10,ESE,117,4.0,-999.0,74,-99.99,,,-99.99,313.299988,,2013-05-01 14:52:00,
2013-05-01 10:00:00,70.0,60.0,30.11,ESE,121,5.0,-999.0,72,-99.99,,,-99.99,392.000000,,2013-05-01 15:00:00,
2013-05-01 10:53:00,70.0,60.0,30.11,ESE,121,5.0,-999.0,72,-99.99,,,-99.99,392.000000,,2013-05-01 15:53:00,
2013-05-01 11:00:00,72.0,59.0,30.12,ESE,115,5.0,-999.0,63,-99.99,,,-99.99,587.200012,,2013-05-01 16:00:00,
2013-05-01 11:53:00,72.0,59.0,30.12,ESE,115,5.0,-999.0,63,-99.99,,,-99.99,587.200012,,2013-05-01 16:53:00,
2013-05-01 12:00:00,73.0,61.0,30.14,ESE,121,4.0,-999.0,66,-99.99,,,-99.99,510.899994,,2013-05-01 17:00:00,
2013-05-01 12:52:00,73.0,61.0,30.14,ESE,121,4.0,-999.0,66,-99.99,,,-99.99,510.899994,,2013-05-01 17:52:00,
2013-05-01 13:00:00,74.0,59.0,30.13,ESE,103,4.0,-999.0,61,-99.99,,,-99.99,747.000000,,2013-05-01 18:00:00,
2013-05-01 13:52:00,74.0,59.0,30.13,ESE,103,4.0,-999.0,61,-99.99,,,-99.99,747.000000,,2013-05-01 18:52:00,
2013-05-01 14:00:00,74.0,59.0,30.10,ESE,110,4.0,-999.0,59,-99.99,,,-99.99,708.000000,,2013-05-01 19:00:00,
2013-05-01 14:52:00,74.0,59.0,30.10,ESE,110,4.0,-999.0,59,-99.99,,,-99.99,708.000000,,2013-05-01 19:52:00,
2013-05-01 15:00:00,73.0,58.0,30.10,ESE,122,4.0,-999.0,59,-99.99,,,-99.99,637.400024,,2013-05-01 20:00:00,
2013-05-01 15:52:00,73.0,58.0,30.10,ESE,122,4.0,-999.0,59,-99.99,,,-99.99,637.400024,,2013-05-01 20:52:00,
2013-05-01 19:00:00,68.0,56.0,30.10,SE,131,3.0,-999.0,65,-99.99,,,-99.99,140.600006,,2013-05-02 00:00:00,
2013-05-01 19:52:00,68.0,56.0,30.10,SE,131,3.0,-999.0,65,-99.99,,,-99.99,140.600006,,2013-05-02 00:52:00,
2013-05-01 20:00:00,67.0,56.0,30.10,SE,129,2.0,-999.0,69,-99.99,,,-99.99,13.520000,,2013-05-02 01:00:00,
2013-05-01 20:52:00,67.0,56.0,30.10,SE,129,2.0,-999.0,69,-99.99,,,-99.99,13.520000,,2013-05-02 01:52:00,
2013-05-01 21:00:00,65.0,56.0,30.11,ESE,107,2.0,-999.0,72,-99.99,,,-99.99,0.000000,,2013-05-02 02:00:00,
2013-05-01 22:00:00,63.0,55.0,30.12,ESE,102,1.0,-999.0,75,-99.99,,,-99.99,0.000000,,2013-05-02 03:00:00,
2013-05-01 22:53:00,63.0,55.0,30.12,ESE,102,1.0,-999.0,75,-99.99,,,-99.99,0.000000,,2013-05-02 03:53:00,
2013-05-01 23:00:00,65.0,54.0,30.12,ESE,108,2.0,-999.0,68,-99.99,,,-99.99,0.000000,,2013-05-02 04:00:00,
2013-05-01 23:52:00,65.0,54.0,30.12,ESE,108,2.0,-999.0,68,-99.99,,,-99.99,0.000000,,2013-05-02 04:52:00,